EUTELSAT KONNECT

Last updated on Sun Jul 06 2025 00:02:46 GMT+0000 (Coordinated Universal Time)

1 45027U 20005B 25186.56619433 .00000065 00000+0 00000+0 0 9993 2 45027 0.0638 90.8517 0001601 119.6102 284.3882 1.00270911 20856
UTC large
Height (km)
Speed (km/s)
/
Latitude / Longitude
Inclination (degrees)
Orbital Period (minutes)
Azimuth
Elevation
Range (km)
Doppler Factor

Next 0 passes for location: London (51.5072 / 0.1276)

Sorry there are no passes over London.